Time,TemperatureF,DewpointF,PressureIn,WindDirection,WindDirectionDegrees,WindSpeedMPH,WindSpeedGustMPH,Humidity,HourlyPrecipIn,Conditions,Clouds,dailyrainin,SoftwareType,DateUTC
2013-02-16 00:02:00,33.0,31.0,29.92,NNE,19,0.0,6.0,93,0.01,,,0.03,,2013-02-16 05:02:00,
2013-02-16 00:12:00,33.0,31.0,29.92,NNE,19,0.0,6.0,93,0.01,,,0.03,,2013-02-16 05:12:00,
2013-02-16 00:22:00,33.0,31.0,29.92,North,355,0.0,2.0,94,0.01,,,0.03,,2013-02-16 05:22:00,
2013-02-16 00:32:00,33.0,31.0,29.92,WNW,284,2.0,6.0,94,0.01,,,0.03,,2013-02-16 05:32:00,
2013-02-16 00:42:00,33.0,31.0,29.92,WNW,284,2.0,6.0,94,0.01,,,0.03,,2013-02-16 05:42:00,
2013-02-16 00:52:00,33.0,31.0,29.92,WNW,286,0.0,2.0,94,0.01,,,0.03,,2013-02-16 05:52:00,
2013-02-16 01:02:00,33.0,31.0,29.92,WNW,286,0.0,2.0,94,0.00,,,0.03,,2013-02-16 06:02:00,
2013-02-16 01:11:00,33.0,31.0,29.92,WNW,286,0.0,2.0,94,0.00,,,0.03,,2013-02-16 06:11:00,
2013-02-16 01:21:00,33.0,31.0,29.92,NNE,27,0.0,3.0,94,0.00,,,0.03,,2013-02-16 06:21:00,
2013-02-16 01:32:00,33.0,31.0,29.91,NNE,15,1.0,3.0,94,0.00,,,0.03,,2013-02-16 06:32:00,
2013-02-16 01:42:00,33.0,31.0,29.91,NNE,15,1.0,3.0,94,0.00,,,0.03,,2013-02-16 06:42:00,
2013-02-16 01:52:00,33.0,31.0,29.90,NE,44,0.0,5.0,94,0.00,,,0.03,,2013-02-16 06:52:00,
2013-02-16 02:02:00,33.0,31.0,29.90,NE,42,0.0,4.0,94,0.00,,,0.03,,2013-02-16 07:02:00,
2013-02-16 02:11:00,33.0,31.0,29.90,NE,42,0.0,4.0,94,0.00,,,0.03,,2013-02-16 07:11:00,
2013-02-16 02:21:00,33.0,31.0,29.90,NNE,15,0.0,6.0,94,0.00,,,0.03,,2013-02-16 07:21:00,
2013-02-16 02:32:00,33.0,31.0,29.90,NNE,24,0.0,4.0,94,0.01,,,0.04,,2013-02-16 07:32:00,
2013-02-16 02:42:00,33.0,31.0,29.90,NNE,24,0.0,4.0,94,0.01,,,0.04,,2013-02-16 07:42:00,
2013-02-16 02:53:00,33.0,31.0,29.89,NNE,24,0.0,2.0,94,0.01,,,0.04,,2013-02-16 07:53:00,
2013-02-16 03:01:00,33.0,31.0,29.89,NNE,24,1.0,3.0,94,0.01,,,0.04,,2013-02-16 08:01:00,
2013-02-16 03:11:00,33.0,31.0,29.89,NNE,24,1.0,3.0,94,0.01,,,0.04,,2013-02-16 08:11:00,
2013-02-16 03:21:00,33.0,31.0,29.88,NNE,24,0.0,5.0,94,0.01,,,0.04,,2013-02-16 08:21:00,
2013-02-16 03:31:00,33.0,31.0,29.87,NNE,24,1.0,4.0,94,0.00,,,0.04,,2013-02-16 08:31:00,
2013-02-16 03:42:00,33.0,31.0,29.87,NNE,24,1.0,4.0,94,0.00,,,0.04,,2013-02-16 08:42:00,
2013-02-16 03:52:00,33.0,31.0,29.87,NNW,345,1.0,9.0,94,0.00,,,0.04,,2013-02-16 08:52:00,
2013-02-16 04:01:00,32.0,30.0,29.87,North,355,2.0,5.0,94,0.00,,,0.04,,2013-02-16 09:01:00,
2013-02-16 04:11:00,32.0,30.0,29.87,North,355,2.0,5.0,94,0.00,,,0.04,,2013-02-16 09:11:00,
2013-02-16 04:21:00,32.0,30.0,29.87,NW,323,0.0,0.0,94,0.00,,,0.04,,2013-02-16 09:21:00,
2013-02-16 04:32:00,32.0,30.0,29.87,NNE,28,0.0,0.0,93,0.00,,,0.04,,2013-02-16 09:32:00,
2013-02-16 04:42:00,32.0,30.0,29.87,NNE,28,0.0,0.0,93,0.00,,,0.04,,2013-02-16 09:42:00,
2013-02-16 04:52:00,32.0,30.0,29.88,NE,37,0.0,0.0,92,0.00,,,0.04,,2013-02-16 09:52:00,
2013-02-16 05:01:00,31.0,29.0,29.89,NE,44,0.0,0.0,92,0.00,,,0.04,,2013-02-16 10:01:00,
2013-02-16 05:11:00,31.0,29.0,29.88,North,360,0.0,0.0,91,0.00,,,0.04,,2013-02-16 10:11:00,
2013-02-16 05:21:00,31.0,29.0,29.88,North,360,0.0,0.0,91,0.00,,,0.04,,2013-02-16 10:21:00,
2013-02-16 05:32:00,31.0,29.0,29.88,North,5,0.0,0.0,91,0.00,,,0.04,,2013-02-16 10:32:00,
2013-02-16 05:42:00,31.0,29.0,29.88,North,5,0.0,0.0,91,0.00,,,0.04,,2013-02-16 10:42:00,
2013-02-16 05:52:00,31.0,29.0,29.89,NNE,32,0.0,0.0,91,0.00,,,0.04,,2013-02-16 10:52:00,
2013-02-16 06:02:00,31.0,29.0,29.89,NNE,32,0.0,0.0,91,0.00,,,0.04,,2013-02-16 11:02:00,
2013-02-16 06:11:00,31.0,29.0,29.89,NNE,32,0.0,0.0,91,0.00,,,0.04,,2013-02-16 11:11:00,
2013-02-16 06:22:00,31.0,28.0,29.89,NNE,32,0.0,0.0,90,0.00,,,0.04,,2013-02-16 11:22:00,
2013-02-16 06:32:00,31.0,28.0,29.88,NNE,32,1.0,3.0,90,0.00,,,0.04,,2013-02-16 11:32:00,
2013-02-16 06:42:00,31.0,28.0,29.88,NNE,32,1.0,3.0,90,0.00,,,0.04,,2013-02-16 11:42:00,
2013-02-16 06:52:00,30.0,27.0,29.87,NNE,24,2.0,5.0,89,0.00,,,0.04,,2013-02-16 11:52:00,
2013-02-16 07:02:00,30.0,27.0,29.88,NNE,26,2.0,6.0,88,0.00,,,0.04,,2013-02-16 12:02:00,
2013-02-16 07:12:00,30.0,27.0,29.88,NNE,26,2.0,6.0,88,0.00,,,0.04,,2013-02-16 12:12:00,
2013-02-16 07:22:00,30.0,27.0,29.89,NW,321,2.0,6.0,88,0.00,,,0.04,,2013-02-16 12:22:00,
2013-02-16 07:32:00,29.0,26.0,29.89,NNE,28,2.0,9.0,87,0.00,,,0.04,,2013-02-16 12:32:00,
2013-02-16 07:42:00,29.0,26.0,29.89,NNE,28,2.0,9.0,87,0.00,,,0.04,,2013-02-16 12:42:00,
2013-02-16 07:52:00,29.0,26.0,29.90,North,355,0.0,6.0,87,0.00,,,0.04,,2013-02-16 12:52:00,
2013-02-16 08:02:00,29.0,26.0,29.90,NNW,344,2.0,5.0,87,0.00,,,0.04,,2013-02-16 13:02:00,
2013-02-16 08:12:00,29.0,26.0,29.90,North,355,3.0,7.0,87,0.00,,,0.04,,2013-02-16 13:12:00,
2013-02-16 08:21:00,29.0,26.0,29.90,North,355,3.0,7.0,87,0.00,,,0.04,,2013-02-16 13:21:00,
2013-02-16 08:32:00,29.0,26.0,29.91,North,350,2.0,5.0,88,0.00,,,0.04,,2013-02-16 13:32:00,
2013-02-16 08:41:00,29.0,26.0,29.91,North,350,2.0,5.0,88,0.00,,,0.04,,2013-02-16 13:41:00,
2013-02-16 08:52:00,29.0,26.0,29.91,NNE,30,2.0,6.0,87,0.00,,,0.04,,2013-02-16 13:52:00,
2013-02-16 09:01:00,29.0,25.0,29.90,NNE,13,3.0,6.0,85,0.00,,,0.04,,2013-02-16 14:01:00,
2013-02-16 09:11:00,29.0,25.0,29.90,NNE,13,3.0,6.0,85,0.00,,,0.04,,2013-02-16 14:11:00,
2013-02-16 09:21:00,29.0,25.0,29.90,NE,50,0.0,6.0,84,0.00,,,0.04,,2013-02-16 14:21:00,
2013-02-16 09:32:00,29.0,25.0,29.90,NNW,329,1.0,6.0,84,0.00,,,0.04,,2013-02-16 14:32:00,
2013-02-16 09:41:00,29.0,25.0,29.90,NNW,329,1.0,6.0,84,0.00,,,0.04,,2013-02-16 14:41:00,
2013-02-16 09:52:00,29.0,25.0,29.89,NW,319,1.0,6.0,84,0.00,,,0.04,,2013-02-16 14:52:00,
2013-02-16 10:02:00,29.0,25.0,29.88,NNW,342,0.0,5.0,84,0.00,,,0.04,,2013-02-16 15:02:00,
2013-02-16 10:11:00,29.0,25.0,29.88,NNW,342,0.0,5.0,84,0.00,,,0.04,,2013-02-16 15:11:00,
2013-02-16 10:22:00,29.0,25.0,29.88,NE,42,3.0,9.0,84,0.00,,,0.04,,2013-02-16 15:22:00,
2013-02-16 10:32:00,29.0,25.0,29.88,NNE,28,2.0,6.0,84,0.00,,,0.04,,2013-02-16 15:32:00,
2013-02-16 10:42:00,29.0,25.0,29.88,NNE,28,2.0,6.0,84,0.00,,,0.04,,2013-02-16 15:42:00,
2013-02-16 10:52:00,29.0,24.0,29.88,NNE,22,5.0,12.0,82,0.00,,,0.04,,2013-02-16 15:52:00,
2013-02-16 11:01:00,30.0,25.0,29.89,NE,55,5.0,11.0,82,0.00,,,0.04,,2013-02-16 16:01:00,
2013-02-16 11:11:00,30.0,25.0,29.89,NE,55,5.0,11.0,82,0.00,,,0.04,,2013-02-16 16:11:00,
2013-02-16 11:21:00,30.0,25.0,29.87,NE,36,3.0,11.0,82,0.00,,,0.04,,2013-02-16 16:21:00,
2013-02-16 11:32:00,30.0,25.0,29.87,NE,44,5.0,7.0,81,0.00,,,0.04,,2013-02-16 16:32:00,
2013-02-16 11:42:00,30.0,25.0,29.87,NE,44,5.0,7.0,81,0.00,,,0.04,,2013-02-16 16:42:00,
2013-02-16 11:52:00,30.0,25.0,29.86,NE,48,5.0,10.0,81,0.00,,,0.04,,2013-02-16 16:52:00,
2013-02-16 12:01:00,30.0,25.0,29.86,NE,34,6.0,11.0,81,0.00,,,0.04,,2013-02-16 17:01:00,
2013-02-16 12:11:00,30.0,25.0,29.86,NE,34,6.0,11.0,81,0.00,,,0.04,,2013-02-16 17:11:00,
2013-02-16 12:22:00,30.0,25.0,29.85,NW,319,7.0,11.0,81,0.00,,,0.04,,2013-02-16 17:22:00,
2013-02-16 12:32:00,30.0,24.0,29.85,NNW,337,5.0,12.0,78,0.03,,,0.07,,2013-02-16 17:32:00,
2013-02-16 12:42:00,30.0,24.0,29.85,NNW,337,5.0,12.0,78,0.03,,,0.07,,2013-02-16 17:42:00,
2013-02-16 12:52:00,31.0,25.0,29.84,NE,39,3.0,11.0,78,0.04,,,0.08,,2013-02-16 17:52:00,
2013-02-16 13:02:00,31.0,24.0,29.84,ENE,59,5.0,10.0,75,0.04,,,0.08,,2013-02-16 18:02:00,
2013-02-16 13:11:00,31.0,24.0,29.84,NE,38,4.0,12.0,74,0.04,,,0.08,,2013-02-16 18:11:00,
2013-02-16 13:21:00,31.0,24.0,29.84,NE,38,4.0,12.0,74,0.04,,,0.08,,2013-02-16 18:21:00,
2013-02-16 13:33:00,31.0,24.0,29.83,NE,51,1.0,12.0,75,0.02,,,0.09,,2013-02-16 18:33:00,
2013-02-16 13:42:00,31.0,24.0,29.83,NE,51,1.0,12.0,75,0.02,,,0.09,,2013-02-16 18:42:00,
2013-02-16 13:51:00,32.0,24.0,29.82,NE,41,5.0,11.0,72,0.01,,,0.09,,2013-02-16 18:51:00,
2013-02-16 14:02:00,32.0,23.0,29.82,NNE,30,3.0,10.0,70,0.01,,,0.09,,2013-02-16 19:02:00,
2013-02-16 14:11:00,32.0,23.0,29.82,NNE,30,3.0,10.0,70,0.01,,,0.09,,2013-02-16 19:11:00,
2013-02-16 14:21:00,32.0,23.0,29.81,NE,43,3.0,10.0,69,0.01,,,0.09,,2013-02-16 19:21:00,
2013-02-16 14:32:00,32.0,22.0,29.80,NE,42,6.0,11.0,66,0.00,,,0.09,,2013-02-16 19:32:00,
2013-02-16 14:42:00,32.0,22.0,29.80,NE,42,6.0,11.0,66,0.00,,,0.09,,2013-02-16 19:42:00,
2013-02-16 14:52:00,32.0,22.0,29.80,North,5,3.0,11.0,66,0.00,,,0.09,,2013-02-16 19:52:00,
2013-02-16 15:01:00,32.0,21.0,29.79,ENE,65,6.0,9.0,64,0.00,,,0.09,,2013-02-16 20:01:00,
2013-02-16 15:11:00,32.0,21.0,29.80,NW,326,1.0,12.0,64,0.00,,,0.09,,2013-02-16 20:11:00,
2013-02-16 15:21:00,32.0,21.0,29.80,NW,326,1.0,12.0,64,0.00,,,0.09,,2013-02-16 20:21:00,
2013-02-16 15:32:00,32.0,21.0,29.80,North,5,1.0,5.0,64,0.00,,,0.09,,2013-02-16 20:32:00,
2013-02-16 15:42:00,32.0,21.0,29.81,WSW,245,0.0,7.0,64,0.00,,,0.09,,2013-02-16 20:42:00,
2013-02-16 15:52:00,32.0,21.0,29.81,WSW,245,0.0,7.0,64,0.00,,,0.09,,2013-02-16 20:52:00,
2013-02-16 16:02:00,32.0,20.0,29.80,North,355,3.0,10.0,60,0.00,,,0.09,,2013-02-16 21:02:00,
2013-02-16 16:11:00,32.0,20.0,29.80,North,355,3.0,10.0,60,0.00,,,0.09,,2013-02-16 21:11:00,
2013-02-16 16:21:00,32.0,20.0,29.79,NNW,332,0.0,5.0,62,0.00,,,0.09,,2013-02-16 21:21:00,
2013-02-16 16:32:00,32.0,20.0,29.79,NW,315,3.0,6.0,60,0.00,,,0.09,,2013-02-16 21:32:00,
2013-02-16 16:42:00,32.0,20.0,29.79,NW,315,3.0,6.0,60,0.00,,,0.09,,2013-02-16 21:42:00,
2013-02-16 16:52:00,31.0,19.0,29.79,North,5,2.0,7.0,61,0.00,,,0.09,,2013-02-16 21:52:00,
2013-02-16 17:01:00,31.0,19.0,29.79,NNE,19,0.0,9.0,61,0.00,,,0.09,,2013-02-16 22:01:00,
2013-02-16 17:11:00,31.0,19.0,29.79,NNE,19,0.0,9.0,61,0.00,,,0.09,,2013-02-16 22:11:00,
2013-02-16 17:21:00,30.0,18.0,29.79,NNE,22,2.0,9.0,61,0.00,,,0.09,,2013-02-16 22:21:00,
2013-02-16 17:32:00,30.0,19.0,29.79,NNE,30,0.0,6.0,62,0.00,,,0.09,,2013-02-16 22:32:00,
2013-02-16 17:42:00,30.0,19.0,29.79,NNE,30,0.0,6.0,62,0.00,,,0.09,,2013-02-16 22:42:00,
2013-02-16 17:52:00,30.0,18.0,29.79,NNE,32,4.0,8.0,60,0.00,,,0.09,,2013-02-16 22:52:00,
2013-02-16 18:02:00,30.0,18.0,29.79,North,9,1.0,6.0,60,0.00,,,0.09,,2013-02-16 23:02:00,
2013-02-16 18:11:00,30.0,18.0,29.79,NE,52,0.0,5.0,61,0.00,,,0.09,,2013-02-16 23:11:00,
2013-02-16 18:21:00,30.0,18.0,29.79,NE,52,0.0,5.0,61,0.00,,,0.09,,2013-02-16 23:21:00,
2013-02-16 18:32:00,30.0,18.0,29.79,NE,37,0.0,5.0,61,0.00,,,0.09,,2013-02-16 23:32:00,
2013-02-16 18:42:00,30.0,18.0,29.79,NE,37,0.0,5.0,61,0.00,,,0.09,,2013-02-16 23:42:00,
2013-02-16 18:52:00,29.0,17.0,29.79,NW,325,0.0,9.0,61,0.00,,,0.09,,2013-02-16 23:52:00,
2013-02-16 19:02:00,29.0,17.0,29.79,North,11,3.0,10.0,61,0.00,,,0.09,,2013-02-17 00:02:00,
2013-02-16 19:12:00,29.0,17.0,29.79,North,11,3.0,10.0,61,0.00,,,0.09,,2013-02-17 00:12:00,
2013-02-16 19:22:00,29.0,17.0,29.78,North,5,2.0,6.0,61,0.00,,,0.09,,2013-02-17 00:22:00,
2013-02-16 19:32:00,29.0,17.0,29.77,North,355,4.0,7.0,60,0.00,,,0.09,,2013-02-17 00:32:00,
2013-02-16 19:42:00,29.0,17.0,29.77,North,355,4.0,7.0,60,0.00,,,0.09,,2013-02-17 00:42:00,
2013-02-16 19:52:00,29.0,17.0,29.77,NE,49,1.0,10.0,61,0.00,,,0.09,,2013-02-17 00:52:00,
2013-02-16 20:01:00,29.0,16.0,29.76,NNW,337,4.0,11.0,59,0.00,,,0.09,,2013-02-17 01:01:00,
2013-02-16 20:11:00,29.0,16.0,29.76,NNW,337,4.0,11.0,59,0.00,,,0.09,,2013-02-17 01:11:00,
2013-02-16 20:21:00,29.0,16.0,29.76,ENE,76,7.0,17.0,59,0.00,,,0.09,,2013-02-17 01:21:00,
2013-02-16 20:31:00,29.0,17.0,29.76,East,90,5.0,11.0,60,0.00,,,0.09,,2013-02-17 01:31:00,
2013-02-16 20:41:00,29.0,17.0,29.76,East,90,5.0,11.0,60,0.00,,,0.09,,2013-02-17 01:41:00,
2013-02-16 20:52:00,29.0,17.0,29.76,NNE,18,6.0,15.0,60,0.00,,,0.09,,2013-02-17 01:52:00,
2013-02-16 21:01:00,28.0,17.0,29.75,NNE,15,6.0,12.0,62,0.00,,,0.09,,2013-02-17 02:01:00,
2013-02-16 21:11:00,28.0,17.0,29.75,NNE,15,6.0,12.0,62,0.00,,,0.09,,2013-02-17 02:11:00,
2013-02-16 21:21:00,28.0,16.0,29.76,NE,44,4.0,14.0,61,0.00,,,0.09,,2013-02-17 02:21:00,
2013-02-16 21:31:00,28.0,16.0,29.76,ENE,72,7.0,16.0,60,0.00,,,0.09,,2013-02-17 02:31:00,
2013-02-16 21:41:00,28.0,16.0,29.76,ENE,72,7.0,16.0,60,0.00,,,0.09,,2013-02-17 02:41:00,
2013-02-16 21:52:00,27.0,14.0,29.76,North,355,11.0,19.0,58,0.00,,,0.09,,2013-02-17 02:52:00,
2013-02-16 22:02:00,27.0,14.0,29.76,North,360,5.0,14.0,58,0.00,,,0.09,,2013-02-17 03:02:00,
2013-02-16 22:11:00,27.0,14.0,29.76,NNE,24,5.0,15.0,57,0.00,,,0.09,,2013-02-17 03:11:00,
2013-02-16 22:21:00,27.0,14.0,29.76,NNE,24,5.0,15.0,57,0.00,,,0.09,,2013-02-17 03:21:00,
2013-02-16 22:31:00,26.0,12.0,29.74,NNE,16,4.0,15.0,56,0.00,,,0.09,,2013-02-17 03:31:00,
2013-02-16 22:42:00,26.0,12.0,29.74,NNE,16,4.0,15.0,56,0.00,,,0.09,,2013-02-17 03:42:00,
2013-02-16 22:52:00,26.0,12.0,29.73,North,360,3.0,10.0,55,0.00,,,0.09,,2013-02-17 03:52:00,
2013-02-16 23:01:00,26.0,12.0,29.72,NE,34,3.0,11.0,55,0.00,,,0.09,,2013-02-17 04:01:00,
2013-02-16 23:11:00,26.0,12.0,29.71,ENE,65,5.0,11.0,55,0.00,,,0.09,,2013-02-17 04:11:00,
2013-02-16 23:21:00,26.0,12.0,29.71,ENE,65,5.0,11.0,55,0.00,,,0.09,,2013-02-17 04:21:00,
2013-02-16 23:31:00,25.0,11.0,29.71,North,5,9.0,16.0,54,0.00,,,0.07,,2013-02-17 04:31:00,
2013-02-16 23:41:00,25.0,11.0,29.71,North,5,9.0,16.0,54,0.00,,,0.07,,2013-02-17 04:41:00,
2013-02-16 23:52:00,25.0,12.0,29.70,NNW,331,1.0,9.0,56,0.00,,,0.07,,2013-02-17 04:52:00,